Location: Dannhausen
(51.8650°N, 10.1026°E)
Time: 01:54:07
(UTC+00:00)

Cosmos 2233 Rocket - Pass Details

Date: 18 August 2020
Orbit: 952 x 992 km, 82.9° (Epoch: 26 September)

Event Time Altitude Azimuth Distance (km) Brightness Sun altitude
Exits shadow 23:46:12 - 259° (W) 2,963 6.4 -25.3°
Reaches altitude 10° 23:47:04 10° 265° (W) 2,758 6.2 -25.2°
Maximum altitude 23:51:04 17° 305° (NW) 2,280 6.2 -25.2°
Drops below altitude 10° 23:55:05 10° 344° (NNW) 2,760 7.2 -25.1°
Sets 23:58:39 0° 4° (N) 3,708 8.4 -25.0°
